Regional Weather Roundup
Issued by NWS

Home | Current Version | Previous Version | Graphics & Text | Print | Product List | Glossary On
Versions: 1 2 3 4 5 6 7 8 9 10 11 12 13 14 15 16 17 18 19 20 21 22 23 24 25 26 27 28 29 30 31 32 33 34 35 36 37 38 39 40 41 42 43 44 45 46 47 48 49 50
822
ASUS43 KLMK 251110
RWRKY
KENTUCKY REGIONAL WEATHER ROUNDUP
NATIONAL WEATHER SERVICE LOUISVILLE KY
700 AM EDT FRI MAY 25 2018

NOTE "FAIR" INDICATES FEW OR NO CLOUDS BELOW 12,000 FEET
WITH NO SIGNIFICANT WEATHER AND/OR OBSTRUCTIONS TO VISIBILITY.

KYZ001>023-026-027-061>063-070>075-251200-
WESTERN AND SOUTH CENTRAL KENTUCKY

CITY           SKY/WX    TMP DP  RH WIND       PRES   REMARKS
PADUCAH        FAIR      67  64  90 CALM      29.99S
HENDERSON      NOT AVBL
OWENSBORO      FAIR      66  61  84 CALM      30.01S
HOPKINSVILLE   FAIR      67  66  98 CALM      30.01S
BOWLING GREEN  FAIR      64  64 100 CALM      30.02S
GLASGOW        FAIR      62  60  94 CALM      30.03S
$$

KYZ024-025-028>034-038-045-046-053-251200-
NORTH CENTRAL KENTUCKY

CITY           SKY/WX    TMP DP  RH WIND       PRES   REMARKS
LOUISVILLE/SDF FAIR      64  59  83 W5        30.02S
LOUISVILLE/LOU FAIR      60  60 100 CALM      30.03S
FORT KNOX      FAIR      59  58  99 CALM      30.03S
$$

KYZ035>037-039>044-047>052-055>060-089>105-251200-
NORTHEAST KENTUCKY

CITY           SKY/WX    TMP DP  RH WIND       PRES   REMARKS
LEXINGTON      FAIR      62  58  86 CALM      30.05R
COVINGTON      FAIR      60  56  86 CALM      30.04R
FRANKFORT      FAIR      60  56  86 CALM      30.03S
$$

KYZ054-064>069-076>088-106>120-251200-
SOUTHEAST KENTUCKY

CITY           SKY/WX    TMP DP  RH WIND       PRES   REMARKS
JACKSON        FAIR      67  62  84 CALM      30.07R
LONDON         FAIR      64  62  93 CALM      30.06S
SOMERSET       FAIR      63  63 100 MISG      30.07R
MIDDLESBORO    FAIR      66  66 100 CALM      30.10R FOG
MONTICELLO     FAIR      63  62  97 VRB7      30.07R
$$





USA.gov is the U.S. government's official web portal to all federal, state and local government web resources and services.